SCP
0 0 0 0 0 0 0 0 0 0 0 0 0 0 0 0 0 0 0 0 0 0 0 0 0 0 0 0 0 0 0 0 0 0 0 0 0 0 0 0 0 0 0 0
0 0 0 0 0 0 0 0 0 0 0 0 0 0 0 0 0 0 0 0 0 0 0 0 0 0 0 0 0 0 0 0 0 0 0 0 0 0 0 0 0 0 0 0
0 0 0 0 0 0 0 0 0 0 0 0 0 0 0 0 0 0 0 0 0 0 0 0 0 0 0 0 0 0 0 0 0 0 0 0 0 0 0 0 0 0 0 0
0 0 0 0 0 0 0 0 0 0 0 0 0 0 0 0 0 0 0 0 0 0 0 0 0 0 0 0 0 0 0 0 0 0 0 0 0 0 0 0 0 0 0 0
0 0 0 0 0 0 0 0 0 0 0 0 0 0 0 0 0 0 0 0 0 0 0 0 0 0 0 0 0 0 0 0 0 0 0 0 0 0 0 0 0 0 0 0
0 0 0 0 0 0 0 0 0 0 0 0 0 0 0 0 0 0 0 0 0 0 0 0 0 0 0 0 0 0 0 0 0 0 0 0 0 0 0 0 0 0 0 0
0 0 0 0 0 0 0 0 0 0 0 0 0 0 0 0 0 0 0 0 0 0 0 0 0 0 0 0 0 0 0 0 0 0 0 0 0 0 0 0 0 0 0 0
0 0 0 0 0 0 0 0 0 0 0 0 0 0 0 0 0 0 0 0 0 0 0 0 0 0 0 0 0 0 0 0 0 0 0 0 0 0 0 0 0 0 0 0
0 0 0 0 0 0 0 0 0 0 0 0 0 0 0 0 0 0 0 0 0 0 0 0 0 0 0 0 0 0 0 0 0 0 0 0 0 0 0 0 0 0 0 0
0 0 0 0 0 0 0 0 0 0 0 0 0 0 0 0 0 0 0 0 0 0 0 0 0 0 0 0 0 0 0 0 0 0 0 0 0 0 0 0 0 0 0 0
0 0 0 0 0 0 0 0 0 0 0 0 0 0 0 0 0 0 0 0 0 0 0 0 0 0 0 0 0 0 0 0 0 0 0 0 0 0 0 0 0 0 0 0
0 0 0 0 0 0 0 0 0 0 0 0 0 0 0 0 0 0 0 0 0 0 0 0 0 0 0 0 0 0 0 0 0 0 0 0 0 0 0 0 0 0 0 0
0 0 0 0 0 0 0 0 0 0 0 0 0 0 0 0 0 0 0 0 0 0 0 0 0 0 0 0 0 0 0 0 0 0 0 0 0 0 0 0 0 0 0 0
0 0 0 0 0 0 0 0 0 0 0 0 0 0 0 0 0 0 0 0 0 0 0 0 0 0 0 0 0 0 0 0 0 0 0 0 0 0 0 0 0 0 0 0
0 0 0 0 0 0 0 0 0 0 0 0 0 0 0 0 0 0 0 0 0 0 0 0 0 0 0 0 0 0 0 0 0 0 0 0 0 0 0 0 0 0 0 0
0 0 0 0 0 0 0 0 0 0 0 0 0 0 0 0 0 0 0 0 0 0 0 0 0 0 0 0 0 0 0 0 0 0 0 0 0 0 0 0 0 0 0 0
0 0 0 0 0 0 0 0 0 0 0 0 0 0 0 0 0 0 0 0 0 0 0 0 0 0 0 0 0 0 0 0 0 0 0 0 0 0 0 0 0 0 0 0
0 0 0 0 0 0 0 0 0 0 0 0 0 0 0 0 0 0 0 0 0 0 0 0 0 0 0 0 0 0 0 0 0 0 0 0 0 0 0 0 0 0 0 0
0 0 0 0 0 0 0 0 0 0 0 0 0 0 0 0 0 0 0 0 0 0 0 0 0 0 0 0 0 0 0 0 0 0 0 0 0 0 0 0 0 0 0 0
0 0 0 0 0 0 0 0 0 0 0 0 0 0 0 0 0 0 0 0 0 0 0 0 0 0 0 0 0 0 0 0 0 0 0 0 0 0 0 0 0 0 0 0
0 0 0 0 0 0 0 0 0 0 0 0 0 0 0 0 0 0 0 0 0 0 0 0 0 0 0 0 0 0 0 0 0 0 0 0 0 0 0 0 0 0 0 0
0 0 0 0 0 0 0 0 0 0 0 0 0 0 0 0 0 0 0 0 0 0 0 0 0 0 0 0 0 0 0 0 0 0 0 0 0 0 0 0 0 0 0 0
0 0 0 0 0 0 0 0 0 0 0 0 0 0 0 0 0 0 0 0 0 0 0 0 0 0 0 0 0 0 0 0 0 0 0 0 0 0 0 0 0 0 0 0
0 0 0 0 0 0 0 0 0 0 0 0 0 0 0 0 0 0 0 0 0 0 0 0 0 0 0 0 0 0 0 0 0 0 0 0 0 0 0 0 0 0 0 0
0 0 0 0 0 0 0 0 0 0 0 0 0 0 0 0 0 0 0 0 0 0 0 0 0 0 0 0 0 0 0 0 0 0 0 0 0 0 0 0 0 0 0 0
0 0 0 0 0 0 0 0 0 0 0 0 0 0 0 0 0 0 0 0 0 0 0 0 0 0 0 0 0 0 0 0 0 0 0 0 0 0 0 0 0 0 0 0
0 0 0 0 0 0 0 0 0 0 0 0 0 0 0 0 0 0 0 0 0 0 0 0 0 0 0 0 0 0 0 0 0 0 0 0 0 0 0 0 0 0 0 0
Wind_Speed
7 7 5 7 7 7 9 8 8 8 8 10 6 6 6 5 4 3 3 3 3 3 3 3 3 3 3 4 4 4 4 5 4 4 4 3 3 3 3 3 3 3 2 2
5 4 5 7 9 9 10 9 10 9 11 8 5 4 5 5 5 5 5 5 4 4 3 3 3 3 3 3 4 4 4 4 4 4 4 3 3 3 3 3 3 3 3 2
4 5 4 7 8 8 6 6 7 10 10 4 4 6 6 6 6 6 6 5 5 4 4 3 3 2 2 3 3 3 4 4 5 4 4 4 3 4 4 3 3 3 3 3
3 3 5 7 1 5 6 6 7 7 6 5 7 7 6 5 5 6 5 5 5 4 4 3 2 2 2 2 2 2 3 4 4 4 4 4 4 4 3 3 3 3 3 3
1 3 8 7 3 4 4 6 6 8 7 5 3 2 4 4 5 6 6 6 5 5 4 3 2 2 1 1 2 2 3 3 4 4 4 4 4 4 3 3 3 3 3 3
2 3 7 6 1 2 2 5 4 5 5 3 2 1 5 3 3 4 4 4 4 3 3 3 3 2 1 2 2 3 3 4 3 3 3 4 4 3 3 3 3 3 4 4
5 6 10 6 2 3 3 7 2 4 4 5 6 7 5 3 3 3 4 4 3 3 3 4 3 2 2 2 3 4 3 3 3 3 3 3 3 3 3 3 3 4 4 4
6 6 11 4 5 7 8 3 2 3 4 5 6 5 4 3 4 3 3 3 3 3 4 3 3 3 3 4 4 3 2 2 3 3 2 2 2 3 3 3 3 3 3 4
10 11 6 5 7 5 3 4 4 4 4 5 5 5 4 4 4 4 4 4 3 4 3 3 4 4 5 5 3 2 2 3 2 2 2 2 2 2 3 2 2 3 3 3
7 10 8 6 6 5 5 6 5 5 5 4 5 5 5 4 4 4 4 4 3 3 3 4 4 5 5 4 3 2 3 3 2 2 2 2 2 2 2 2 2 3 3 3
8 9 5 7 8 8 7 5 5 5 5 5 5 5 5 5 5 4 4 3 3 4 5 5 4 4 4 3 3 3 3 3 3 2 2 2 2 2 3 3 3 3 3 3
11 9 7 7 5 5 5 6 6 5 4 4 5 6 5 5 5 4 4 3 3 4 4 4 3 4 4 3 3 3 3 3 2 2 2 2 2 4 5 5 6 7 6 5
11 7 7 7 5 5 6 6 6 6 6 5 5 5 5 4 4 4 4 4 5 5 5 4 4 4 4 3 4 4 4 4 3 2 3 3 2 3 4 5 6 6 7 8
9 6 8 8 7 6 6 6 5 5 5 5 5 4 4 4 3 4 4 5 4 4 4 4 4 4 4 3 4 4 4 5 4 3 3 3 3 3 3 4 5 4 5 7
9 9 9 7 5 5 4 4 4 4 4 4 3 4 4 4 5 5 4 3 3 3 3 3 4 5 3 3 4 4 4 3 3 3 3 3 3 3 3 4 4 4 4 5
5 5 6 7 7 6 5 5 5 6 5 5 4 5 5 5 4 4 3 3 3 4 4 4 5 5 3 3 4 3 4 6 5 3 3 3 3 3 4 4 4 4 4 4
6 7 6 7 7 7 6 7 7 6 5 5 6 5 4 3 3 4 4 4 4 5 5 5 6 4 3 4 4 3 3 4 6 4 3 4 4 4 4 4 4 4 4 5
9 9 8 7 7 7 7 6 6 6 6 6 5 4 4 5 6 6 5 3 3 4 5 5 5 4 4 4 3 3 3 3 3 4 4 4 4 4 4 4 5 5 4 5
6 7 7 7 6 6 5 5 5 5 5 4 4 5 6 6 6 5 4 3 4 6 6 5 6 4 4 5 4 3 3 3 4 4 4 6 5 4 4 4 5 5 4 4
5 4 5 5 5 5 5 5 4 4 4 4 4 5 5 6 5 4 4 6 6 6 4 4 4 4 5 5 5 3 3 4 4 4 4 4 4 5 4 5 5 5 4 4
5 4 4 4 4 5 5 4 4 5 4 4 5 6 6 5 4 4 4 6 6 5 4 6 4 4 4 5 5 3 4 4 4 4 4 4 5 5 5 5 5 5 4 4
4 4 4 4 4 4 4 4 4 4 4 4 5 5 5 5 5 5 6 6 5 5 4 3 4 6 6 6 3 3 4 4 4 4 4 5 5 5 5 5 5 5 4 4
4 4 4 4 5 4 4 3 4 5 5 6 6 6 6 5 4 4 6 4 4 6 4 4 6 9 9 4 3 4 4 5 4 5 5 5 5 5 5 5 5 5 4 4
4 4 5 4 3 3 5 5 4 4 5 5 5 5 5 4 4 5 5 5 6 7 4 6 9 9 7 3 3 4 4 4 4 5 5 5 5 5 5 5 4 4 4 5
5 4 4 4 4 5 6 4 3 4 4 4 5 5 4 4 5 4 3 4 7 6 4 5 8 8 4 3 4 4 4 5 5 4 4 4 4 4 4 4 4 4 4 4
5 5 5 6 5 4 3 3 3 4 3 4 4 4 3 3 4 3 3 4 5 5 4 3 3 4 3 3 4 4 4 5 5 5 5 4 5 4 4 4 5 4 4 4
5 4 4 4 4 5 4 4 5 5 5 5 5 4 3 3 3 3 3 3 3 3 3 3 3 3 3 3 4 4 4 4 4 4 4 4 3 3 4 4 4 3 3 4
Wind_Direction
254 257 242 240 238 216 209 211 219 243 246 257 250 249 247 245 244 237 243 244 246 258 274 293 309 318 326 332 337 343 353 357 353 348 350 355 353 350 353 356 352 352 357 351
283 264 249 255 248 228 228 227 237 258 271 260 249 240 235 236 232 237 245 243 242 250 258 271 286 302 317 329 334 346 355 352 349 354 353 355 355 358 5 2 358 5 0 347
283 308 324 271 240 206 205 212 205 231 246 261 260 252 237 229 227 233 242 241 237 240 242 250 259 272 293 308 328 346 351 350 350 352 352 349 356 8 3 354 356 354 345 345
288 345 256 246 227 185 200 232 218 232 249 239 241 252 239 220 218 236 240 237 237 234 238 245 250 271 286 309 325 334 340 344 345 348 347 351 1 1 349 344 348 343 340 340
239 278 279 288 252 182 192 260 225 228 251 257 271 310 279 235 221 225 227 229 229 224 219 222 233 244 272 308 318 328 328 327 332 339 343 349 353 348 344 350 355 351 346 347
198 238 252 254 229 148 115 277 241 209 232 229 141 242 261 246 240 234 230 221 220 216 203 211 228 210 221 276 301 299 300 307 316 331 338 338 337 338 342 350 350 348 348 342
212 239 263 254 203 123 182 250 234 203 216 196 200 221 249 260 245 232 225 220 209 203 209 219 214 197 224 256 270 277 287 300 312 322 327 329 334 335 338 343 346 345 341 336
188 216 253 218 149 188 221 240 215 217 219 219 233 250 255 248 247 245 238 225 209 210 229 227 205 199 231 251 261 274 279 286 300 308 313 328 332 331 331 335 338 333 330 329
198 218 238 194 201 218 202 218 228 225 234 226 237 246 248 247 248 246 237 231 219 216 235 240 216 204 228 251 256 257 262 266 279 300 311 312 311 318 324 327 322 313 315 319
247 256 249 238 238 247 233 230 238 234 235 220 230 243 248 248 250 249 243 233 222 218 236 251 240 227 231 245 239 236 250 262 265 274 294 304 297 291 297 297 299 305 310 313
250 264 275 256 237 240 246 244 245 244 229 221 224 240 237 241 246 245 243 236 219 222 234 246 248 246 243 237 220 232 249 260 267 263 269 284 293 279 277 266 271 283 283 290
234 226 211 239 229 219 226 237 236 233 241 236 220 233 239 241 240 239 239 231 229 233 238 245 243 249 247 232 216 222 243 253 258 268 270 271 287 304 295 289 295 293 289 289
238 244 234 250 248 232 231 238 233 224 226 235 234 225 229 237 237 236 236 231 228 232 238 241 243 249 248 235 222 223 235 243 247 251 258 263 271 283 301 310 304 299 295 296
237 242 255 248 244 241 237 240 239 238 236 231 231 228 227 233 239 240 243 240 235 234 239 239 244 254 252 237 231 235 239 242 242 240 246 252 255 260 266 284 300 300 295 293
235 229 238 248 250 246 235 228 231 242 242 243 232 229 226 230 239 246 249 244 236 240 246 243 248 258 250 233 236 240 239 243 242 243 247 253 258 260 261 267 276 288 297 296
237 239 241 243 247 246 236 227 230 241 239 238 236 236 232 230 240 249 247 226 226 245 251 247 250 254 241 232 239 244 244 250 249 246 249 255 256 259 263 266 270 276 280 284
232 244 237 240 242 241 234 231 231 235 235 234 236 234 229 231 243 251 251 241 235 244 246 242 248 251 238 230 231 242 245 250 249 249 245 250 254 254 258 262 266 270 273 277
227 234 231 231 235 238 240 234 230 231 231 234 231 220 220 225 238 248 253 253 255 263 255 244 242 246 242 238 234 238 243 247 245 245 248 251 257 256 257 259 263 268 277 280
232 234 236 234 230 227 232 233 232 234 237 228 221 226 230 233 239 246 245 244 249 259 258 245 248 241 241 243 243 234 239 246 250 249 248 258 263 258 257 259 263 265 271 275
234 232 233 238 233 226 232 234 231 235 233 222 225 235 243 245 240 239 237 241 241 244 248 249 246 243 242 242 241 233 233 240 246 250 250 250 254 258 259 263 265 267 268 268
238 236 236 239 243 241 235 229 223 233 233 219 222 234 242 247 238 230 238 257 256 241 243 248 242 243 242 244 241 235 234 239 242 245 247 250 254 257 259 263 266 267 267 269
234 234 240 241 242 253 248 229 221 228 232 232 235 239 245 250 246 242 239 245 255 249 246 241 241 246 251 251 231 231 237 242 244 244 245 246 249 253 255 259 262 265 265 266
232 232 237 237 237 247 257 239 225 222 228 232 235 236 238 243 237 239 259 248 242 248 245 240 247 254 256 243 228 231 236 240 244 244 245 245 247 250 253 255 257 260 262 264
236 236 237 235 223 234 251 251 239 232 233 240 240 237 236 247 253 240 245 258 253 252 245 249 254 257 255 237 231 234 236 240 245 248 247 246 246 248 250 252 254 257 259 262
236 236 234 227 228 235 242 249 250 244 241 248 252 247 238 231 241 255 249 249 254 255 252 253 256 258 250 238 236 239 240 242 248 251 248 247 247 248 249 249 250 253 258 259
230 231 230 227 229 234 229 221 233 241 237 250 258 248 242 240 241 246 248 250 250 253 250 247 252 251 241 238 241 243 245 253 257 253 248 246 245 245 246 249 252 254 256 258
234 235 237 244 242 231 226 222 229 238 232 234 251 248 235 234 235 238 242 246 246 248 249 245 241 243 244 246 248 246 245 245 247 250 249 244 241 242 245 248 252 254 256 258